GFSNIL_sfc_temp_000.txt.gz
Temp
48 47 48 47 44 41 39 39 40 40 41 42 42 43 43 42 42 42 41 41 41 39
45 47 47 45 40 39 39 41 40 41 41 42 44 44 44 42 41 40 40 39 40 40
45 46 45 40 39 39 39 40 40 41 42 43 42 42 43 41 41 40 40 41 40 40
44 43 41 38 38 38 40 41 42 43 42 42 42 42 40 40 40 40 40 40 39 38
40 38 37 38 39 40 41 42 42 43 43 43 41 40 40 39 39 38 36 36 35 35
37 36 36 37 38 39 40 42 42 43 43 42 41 40 38 37 36 35 34 33 33 33
35 36 35 37 38 39 40 42 42 42 40 38 38 38 37 36 33 32 33 32 32 31
40 40 38 38 39 40 40 41 40 40 38 37 37 38 33 33 32 31 30 31 32 32
42 42 41 40 40 39 39 39 38 35 33 33 36 37 36 35 31 31 31 29 30 30
40 40 40 40 38 36 34 33 32 32 32 32 32 36 36 36 31 30 29 28 28 29
39 37 36 35 34 33 33 32 31 30 30 29 31 34 34 34 29 27 27 27 28 28
35 34 33 32 31 31 30 30 29 30 29 27 28 32 32 31 24 23 24 27 28 28
33 31 29 29 29 29 28 29 29 28 27 27 23 28 31 30 25 22 25 25 29 30
31 30 29 28 27 26 26 25 20 17 20 23 25 24 29 31 27 26 25 26 26 28

GFSNIL_sfc_temp_003.txt.gz
Temp
58 57 56 56 55 53 52 52 51 53 54 54 54 53 53 52 50 48 46 42 41 41
55 54 54 53 52 50 50 51 51 51 51 52 52 51 51 50 49 46 45 44 43 42
54 53 51 50 48 48 49 50 50 50 50 50 50 50 48 48 48 47 47 47 46 46
51 49 48 48 48 48 49 50 50 49 49 47 46 44 45 45 46 47 47 47 46 45
49 48 47 47 47 48 48 48 49 48 46 45 46 47 46 45 45 45 45 45 44 44
47 47 46 46 47 47 47 48 47 45 45 46 46 45 45 44 43 43 43 42 41 40
45 45 44 45 46 46 47 47 44 46 45 44 45 45 45 44 41 41 40 40 40 40
45 45 42 44 45 47 47 46 45 43 43 42 42 43 42 41 40 39 38 39 39 38
44 46 46 45 44 44 43 43 42 41 40 40 41 37 37 37 39 38 37 36 37 38
44 44 43 43 43 42 41 41 40 40 39 39 39 35 36 35 38 37 36 35 35 35
43 42 42 41 40 40 40 39 38 38 37 37 37 33 33 33 35 34 34 34 34 34
41 40 40 38 38 38 38 37 37 36 36 35 35 32 32 32 32 31 31 33 34 34
40 39 38 38 37 37 37 36 35 34 34 32 31 31 30 31 31 29 30 32 33 32
40 38 38 37 38 37 36 33 30 29 30 31 30 30 29 30 29 29 29 30 32 33

GFSNIL_sfc_temp_006.txt.gz
Temp
66 65 64 63 61 59 59 60 59 59 60 60 60 59 58 53 51 52 52 50 47 45
63 62 60 59 59 59 58 59 58 58 57 57 56 56 54 51 48 48 48 50 50 50
61 60 58 57 56 56 57 57 56 56 55 54 54 52 50 48 47 46 47 47 47 51
58 57 57 56 55 55 55 55 55 54 53 52 47 45 44 45 47 49 49 50 50 50
57 57 56 54 54 53 52 53 53 50 47 47 47 48 47 47 50 49 49 49 49 49
55 55 53 52 51 50 48 48 47 48 48 47 47 48 49 50 49 49 49 48 47 47
54 51 49 47 49 50 50 50 50 50 49 48 48 49 49 49 47 47 47 46 45 45
52 52 52 51 51 51 50 50 50 49 48 48 48 48 44 45 45 45 44 44 44 44
51 51 51 50 49 49 49 49 48 47 46 45 47 36 36 38 42 43 43 43 44 44
51 49 49 49 49 48 47 47 45 45 45 44 44 35 35 34 39 40 40 41 41 41
49 48 48 48 47 46 46 45 44 44 43 42 43 36 34 33 37 38 39 40 40 40
48 47 47 46 45 45 45 44 43 42 41 40 40 35 33 32 34 35 35 38 39 37
48 47 46 45 45 45 45 43 42 39 39 36 36 34 32 32 33 30 31 33 34 34
48 46 46 46 46 45 44 40 35 33 34 35 34 34 32 31 29 30 29 31 33 36

GFSNIL_sfc_temp_009.txt.gz
Temp
68 66 65 63 61 59 59 60 61 60 60 60 57 56 56 54 53 51 51 47 45 46
65 63 61 59 59 59 59 60 60 59 58 56 55 52 51 49 48 49 48 48 48 48
63 61 60 59 58 58 58 58 57 55 54 52 49 49 48 49 50 48 48 49 49 49
61 60 59 59 58 56 53 54 53 52 50 50 49 48 47 47 48 47 47 49 50 50
61 60 59 58 54 53 54 53 52 51 50 49 48 47 47 46 47 48 47 48 48 48
60 58 56 54 53 53 53 53 52 52 51 50 51 51 50 50 49 48 48 48 47 47
56 55 54 53 53 53 54 52 52 52 51 50 50 50 50 49 47 47 48 48 47 46
56 55 54 53 53 52 52 52 52 50 50 50 49 49 44 44 43 43 44 45 46 47
55 52 52 51 51 51 50 50 50 49 48 47 48 36 36 37 40 40 41 41 43 45
52 51 50 51 51 50 49 49 47 47 47 45 45 36 36 34 38 37 38 40 41 42
52 50 50 51 50 49 49 47 46 45 45 43 44 37 34 33 36 37 37 39 39 39
51 48 49 49 48 48 47 46 45 45 42 39 39 37 34 34 34 33 34 36 37 37
51 49 48 48 47 48 47 46 44 41 40 37 37 36 35 34 33 30 31 34 35 35
51 50 49 48 48 47 46 43 39 36 37 38 37 36 35 32 31 30 29 31 32 35

GFSNIL_sfc_temp_012.txt.gz
Temp
60 58 57 55 53 52 52 52 53 53 53 51 50 49 49 48 47 46 46 43 45 42
58 56 54 53 53 52 52 54 52 50 50 49 47 48 47 45 45 46 44 43 42 42
57 56 55 53 52 51 50 51 50 49 49 48 47 46 46 43 44 44 44 44 44 43
56 56 55 53 50 50 49 50 51 50 50 49 47 44 43 43 43 43 43 44 44 44
56 55 53 51 50 49 48 49 49 49 48 48 46 45 44 43 43 43 42 43 42 43
54 52 50 50 49 49 48 48 48 47 46 46 45 44 44 44 42 41 41 41 40 42
52 51 50 49 49 48 48 47 46 46 46 45 45 46 43 43 40 39 39 39 39 39
53 52 50 48 48 48 47 47 46 45 44 44 44 43 37 38 36 35 36 36 38 39
53 51 49 47 47 46 45 45 44 43 43 41 46 37 36 35 32 34 34 32 35 36
48 48 48 48 47 46 44 43 41 41 41 39 39 37 36 34 32 32 32 32 33 34
48 48 48 47 46 44 43 41 40 40 39 37 39 38 37 34 30 30 30 31 31 31
48 48 47 45 43 42 41 40 39 40 37 34 34 37 36 33 29 29 29 31 31 32
46 47 44 44 43 42 41 41 37 35 34 36 32 36 35 32 27 25 27 29 30 32
41 43 43 44 43 41 39 36 32 31 32 33 34 33 35 32 27 26 26 26 27 29

GFSNIL_sfc_temp_015.txt.gz
Temp
53 52 49 49 48 47 45 45 46 46 46 45 45 44 43 45 42 44 42 41 39 40
52 51 50 49 46 45 45 49 46 45 45 45 44 44 43 40 40 41 40 40 41 41
53 52 50 46 45 45 45 45 45 45 44 44 44 43 41 39 39 39 39 42 40 41
50 49 47 46 45 45 44 45 45 45 44 43 42 41 40 39 40 39 39 38 39 40
50 48 46 45 45 44 45 45 44 43 42 42 41 40 39 38 37 36 35 36 35 36
49 49 45 46 45 45 44 43 42 42 41 41 40 40 39 37 36 35 35 35 34 35
46 48 47 45 44 46 45 43 42 42 42 41 41 39 38 37 34 33 34 34 34 34
47 47 44 45 45 44 44 43 43 41 40 40 40 39 33 33 31 30 30 31 33 34
45 45 44 43 43 44 41 42 41 39 39 36 40 36 36 33 29 30 30 28 30 31
45 43 43 45 44 43 39 39 39 36 36 35 34 37 37 35 30 28 27 27 28 30
43 42 43 42 43 40 39 39 35 34 33 32 36 37 37 34 28 27 28 28 29 28
41 41 41 41 41 41 39 34 33 33 32 31 31 35 34 31 27 27 27 29 29 29
39 38 38 36 38 38 36 34 32 32 31 33 29 35 35 30 27 23 25 26 28 30
40 39 39 39 39 36 32 30 27 27 28 30 30 28 33 31 26 25 24 24 25 27

GFSNIL_sfc_temp_018.txt.gz
Temp
50 51 52 51 49 46 43 44 44 44 44 44 43 43 41 40 39 41 38 38 38 39
50 52 51 48 44 43 43 46 44 43 43 43 42 42 41 38 38 37 37 38 39 39
50 49 46 44 43 43 43 44 43 43 42 41 41 40 39 37 37 36 36 37 35 35
48 47 44 44 43 43 43 44 46 43 42 41 40 39 37 36 36 35 34 34 34 34
47 46 45 44 44 43 45 46 44 44 43 41 40 38 37 35 35 34 33 33 32 32
47 45 44 44 43 44 43 43 43 41 42 41 40 38 36 35 33 32 32 31 31 31
44 43 42 42 43 43 41 41 43 42 42 40 39 37 35 34 31 31 31 31 31 30
43 43 43 42 40 41 42 41 41 41 39 37 37 37 32 32 31 30 29 30 30 30
43 43 42 41 40 39 40 41 41 39 37 35 38 36 36 35 29 30 29 27 29 29
42 41 40 40 40 40 38 38 37 36 36 32 33 37 37 35 31 28 27 26 27 28
40 39 39 39 38 38 37 38 35 33 31 31 33 35 34 34 27 26 26 27 27 27
39 38 37 35 34 35 35 33 32 31 31 29 28 34 34 29 24 25 25 27 27 28
39 37 36 35 34 33 33 33 32 31 29 31 26 32 33 30 22 19 23 25 27 28
38 37 37 37 36 32 31 30 26 26 26 27 28 26 31 30 25 23 23 23 24 26

GFSNIL_sfc_temp_021.txt.gz
Temp
49 48 48 48 45 43 42 42 43 42 42 42 42 41 40 39 38 38 36 35 35 35
47 47 46 46 43 42 42 44 43 42 42 43 42 41 41 37 36 35 35 34 34 33
47 47 45 43 42 41 41 43 43 45 42 41 42 40 38 36 36 36 33 34 32 32
45 45 44 42 41 41 41 45 45 44 42 41 39 38 37 36 36 35 32 32 32 31
45 44 42 41 41 41 41 41 41 42 42 41 40 39 36 36 35 32 31 31 30 30
42 42 41 41 41 41 40 39 40 41 39 40 39 37 36 34 32 31 31 30 30 30
41 42 41 40 39 39 39 40 41 38 39 39 38 38 35 33 31 30 31 31 30 29
42 41 41 40 39 39 40 41 39 38 38 37 38 36 33 32 31 30 29 30 30 30
41 40 40 39 38 38 40 39 37 38 36 35 37 37 37 35 30 30 29 27 29 29
39 39 38 38 37 36 36 37 34 34 33 32 31 36 35 34 30 27 26 26 26 27
38 37 37 36 35 34 34 33 31 30 31 30 32 34 34 32 26 25 25 26 26 26
37 36 36 35 34 32 32 30 30 31 29 27 27 33 33 30 24 24 24 26 26 27
37 36 34 34 33 33 32 32 31 30 28 31 25 30 31 30 21 16 23 24 26 27
36 34 34 33 32 31 30 29 26 26 26 27 27 25 30 30 21 22 23 23 24 25

GFSNIL_sfc_temp_027.txt.gz
Temp
57 58 58 57 57 56 55 55 54 53 53 53 52 52 51 51 50 49 48 47 47 46
57 56 56 55 54 53 52 53 52 52 52 52 52 51 50 49 48 48 48 47 46 45
55 55 54 54 53 52 53 53 52 53 52 51 49 48 48 48 48 46 47 46 44 44
54 54 54 53 53 52 52 54 52 50 50 48 46 48 48 47 46 45 45 44 43 42
54 54 53 52 52 52 50 50 49 48 48 48 48 48 46 45 45 43 42 42 41 41
52 51 50 50 50 50 49 48 48 47 47 45 44 45 45 43 42 41 41 41 40 39
50 49 49 49 49 48 47 46 47 46 45 44 45 44 43 41 41 40 40 39 38 37
49 49 48 48 47 46 46 46 44 41 42 43 43 43 41 41 39 39 38 37 36 36
48 47 47 46 45 45 44 45 44 41 41 40 41 36 36 37 38 37 35 34 35 35
46 46 45 45 45 44 43 43 42 41 40 39 39 35 35 34 37 35 34 33 33 33
45 44 44 43 43 43 43 42 41 39 39 38 37 33 33 32 35 34 33 33 33 32
44 43 43 42 42 42 42 42 40 39 37 36 36 32 32 33 33 32 32 32 33 32
43 42 41 41 41 41 41 40 40 37 37 33 34 30 31 32 32 29 30 31 32 29
43 41 41 41 41 40 40 38 35 34 34 34 33 33 30 30 31 30 29 29 29 30

GFSNIL_sfc_temp_030.txt.gz
Temp
66 70 68 65 64 63 63 62 62 61 61 60 60 59 58 56 55 54 52 50 51 52
67 64 63 62 62 62 61 61 60 60 59 59 59 58 56 55 53 52 51 50 50 49
63 64 64 62 60 59 60 60 59 58 58 58 57 57 54 53 53 50 51 52 49 49
62 63 63 61 59 59 58 58 57 56 55 55 55 55 53 52 51 50 49 49 48 48
62 62 60 59 58 58 56 56 55 55 54 54 53 52 50 49 49 48 47 48 48 47
61 59 58 57 57 56 55 54 54 54 51 49 50 50 50 49 47 47 47 47 46 45
59 58 57 56 55 54 54 53 53 52 50 49 50 49 49 48 47 47 47 46 45 43
58 57 56 54 54 53 52 52 52 50 48 48 48 49 47 47 46 46 45 44 44 43
56 55 54 53 51 51 51 51 51 49 48 47 48 35 36 37 44 44 43 42 42 42
53 52 52 52 51 51 50 50 48 47 47 46 46 35 34 34 42 42 41 40 40 40
52 51 51 51 50 50 50 49 48 47 47 46 44 34 33 33 41 41 40 40 39 39
52 50 50 49 48 48 48 48 47 47 46 44 43 33 32 33 39 39 38 39 39 37
51 50 49 48 47 48 48 47 47 46 45 39 41 33 32 33 37 34 36 38 38 34
51 49 49 48 48 48 47 45 43 40 42 42 40 39 31 31 33 34 34 35 35 36

GFSNIL_sfc_temp_033.txt.gz
Temp
69 68 68 68 66 65 64 64 63 62 62 61 61 61 60 57 56 55 53 52 51 52
67 65 65 65 65 64 63 63 62 61 60 60 59 59 59 57 54 54 53 51 51 50
64 65 66 64 62 62 61 61 60 59 59 58 58 58 57 56 55 52 51 51 50 50
63 65 64 63 62 61 60 60 58 58 57 57 56 57 54 53 52 51 50 51 49 47
65 65 63 62 61 60 59 59 58 57 56 56 55 53 51 51 50 49 48 47 47 46
64 63 62 61 60 59 58 57 57 56 55 54 52 50 50 50 48 48 47 47 46 47
63 62 61 61 59 58 57 55 55 55 55 52 52 51 49 49 48 47 48 48 47 46
62 61 60 58 57 56 55 55 55 54 53 50 49 50 47 48 47 47 47 47 47 46
60 59 58 57 55 55 54 54 54 53 51 50 50 35 37 37 44 45 45 44 44 44
58 57 56 56 55 54 53 53 52 51 50 48 48 36 36 35 41 43 44 43 42 42
56 54 55 54 53 52 52 51 50 49 49 47 46 36 35 34 40 43 43 42 42 41
55 54 53 52 52 52 50 50 49 50 48 47 44 35 35 34 40 40 40 41 41 40
55 53 52 52 51 51 50 49 50 48 48 41 45 35 35 34 38 36 37 40 40 35
54 52 52 52 50 49 49 48 45 43 44 44 42 41 34 33 35 36 35 35 37 38

GFSNIL_sfc_temp_036.txt.gz
Temp
64 61 61 59 59 57 55 55 56 54 54 53 53 51 51 49 48 49 45 44 43 43
61 60 57 59 59 57 56 58 54 53 52 52 51 50 49 47 47 47 44 43 43 43
60 59 59 59 57 56 55 55 53 52 51 51 50 50 48 46 46 45 43 45 42 42
59 58 59 58 57 55 54 54 53 52 51 50 50 49 46 45 46 45 43 43 43 41
59 58 57 58 57 55 53 53 52 52 51 51 50 47 46 44 46 43 42 41 41 41
58 59 57 57 56 55 54 52 51 51 50 49 48 46 46 45 44 43 42 41 41 40
57 57 57 57 55 53 53 51 50 50 50 49 48 47 47 46 43 42 42 42 41 39
57 58 57 54 53 52 51 51 51 50 49 48 47 48 43 43 40 39 38 39 41 39
57 57 55 53 52 50 50 50 50 48 48 45 48 37 37 38 36 38 37 35 36 37
56 55 53 53 52 50 48 47 46 46 46 44 41 37 37 35 35 34 34 35 34 36
55 53 52 51 50 48 48 46 45 44 44 44 44 37 36 35 32 33 34 35 34 33
53 50 50 49 48 47 46 45 44 45 43 42 37 36 35 34 32 32 33 36 35 35
51 49 49 47 47 46 46 46 45 43 42 39 37 35 35 34 29 29 29 32 33 33
48 49 49 48 46 44 43 42 39 37 38 39 38 34 36 35 30 28 28 28 28 29

GFSNIL_sfc_temp_039.txt.gz
Temp
57 54 53 52 51 51 52 53 52 51 50 48 48 47 46 44 43 43 41 42 44 42
54 53 52 52 53 53 52 55 51 50 50 49 47 48 46 42 42 42 41 40 42 42
53 53 53 54 54 54 53 53 50 50 48 47 47 46 44 42 42 42 40 40 39 39
52 53 55 55 54 53 52 53 50 51 48 47 46 45 43 42 43 41 39 39 39 39
53 56 56 55 54 53 52 51 51 49 48 48 46 45 43 42 41 40 39 39 38 38
55 55 54 54 54 52 51 48 49 48 47 46 45 44 44 42 41 41 40 39 38 38
53 54 54 53 53 49 49 48 49 47 47 46 45 46 45 44 39 38 38 37 36 37
53 53 53 53 51 49 49 49 48 47 46 45 44 45 42 41 38 37 37 36 37 36
52 53 50 49 49 48 48 47 46 46 46 44 46 39 40 38 35 36 35 32 33 34
51 50 50 50 49 48 46 46 45 44 44 43 39 38 38 37 35 34 33 31 31 33
49 49 47 47 46 46 45 44 43 42 42 42 40 37 37 36 32 31 31 31 31 30
48 46 46 45 44 44 46 43 42 42 41 40 37 37 36 34 31 31 31 32 32 32
46 46 44 43 44 44 43 43 42 41 39 39 34 36 36 34 28 28 28 30 30 33
46 44 44 44 43 42 40 39 36 35 35 37 34 33 36 36 30 29 28 28 27 27

GFSNIL_sfc_temp_042.txt.gz
Temp
57 54 51 53 53 52 51 51 51 50 51 49 48 46 43 43 42 40 39 39 39 39
55 55 53 52 53 52 51 52 50 50 49 49 48 46 44 42 40 39 39 38 38 38
54 54 53 53 52 52 51 51 51 50 49 49 47 44 42 41 41 40 38 38 37 37
51 51 54 53 52 51 50 51 50 49 48 48 44 44 42 41 42 40 39 38 38 38
54 55 54 53 52 51 51 51 48 47 47 46 45 43 42 40 40 39 38 38 38 37
54 54 52 52 51 49 48 48 47 47 46 46 44 43 42 41 40 39 39 38 36 37
53 53 52 51 48 48 47 45 46 46 45 45 43 44 44 43 40 39 38 37 36 36
52 50 50 48 47 46 46 47 46 45 46 45 44 45 43 42 38 36 36 36 36 36
51 50 49 47 47 47 47 47 46 46 45 43 45 42 41 39 36 37 35 33 33 33
49 47 46 47 46 46 45 46 45 43 43 42 42 40 40 38 35 34 33 32 32 33
45 45 45 44 44 43 44 43 42 42 41 40 41 38 38 37 33 32 32 32 32 30
44 44 44 42 42 43 42 41 40 40 39 38 38 38 37 35 32 31 31 33 33 31
44 43 42 41 40 39 38 39 39 39 38 38 36 37 37 35 31 30 29 29 31 34
42 41 41 39 38 38 37 36 33 33 33 33 34 33 37 36 30 30 29 29 28 28

GFSNIL_sfc_temp_045.txt.gz
Temp
54 55 55 54 53 50 50 49 49 49 48 48 49 47 46 44 42 41 39 39 38 38
52 52 50 52 52 51 50 50 48 47 47 48 48 48 46 41 41 39 38 37 37 37
52 54 53 52 51 51 50 48 47 48 47 48 48 45 42 39 40 38 37 37 37 37
52 52 53 52 51 50 50 49 49 47 48 47 45 42 41 40 41 40 38 38 38 38
52 53 52 51 50 49 48 50 48 47 46 46 44 42 41 41 41 38 37 37 36 37
51 51 50 49 50 48 47 45 44 44 46 45 43 43 41 40 38 38 37 37 36 37
49 49 49 48 48 47 47 45 46 47 46 45 45 42 41 40 38 38 37 36 36 35
48 49 49 47 45 45 46 46 47 46 45 44 43 43 41 41 38 36 35 35 36 34
50 49 46 46 45 45 45 47 45 43 44 43 44 41 41 39 35 35 34 33 33 35
47 45 45 45 45 44 43 42 42 43 42 41 40 40 41 39 34 33 32 32 32 32
43 42 43 44 42 41 41 40 39 38 38 37 39 39 39 38 32 31 32 32 33 30
44 44 43 41 41 41 40 38 36 37 36 35 35 38 38 35 30 30 31 32 31 32
44 42 41 40 40 37 36 36 36 36 35 36 34 37 38 36 29 29 30 29 31 35
41 41 40 37 36 35 34 33 31 32 32 32 32 33 37 37 30 30 30 30 30 31

GFSNIL_sfc_temp_048.txt.gz
Temp
57 55 53 53 53 50 47 47 49 45 48 46 46 46 46 45 43 41 41 38 38 39
54 53 52 52 50 49 48 48 48 46 46 46 47 46 47 44 43 39 37 38 38 37
53 53 51 51 50 49 49 47 46 46 46 47 46 47 45 42 41 38 37 37 36 36
50 51 52 52 51 50 48 47 46 47 46 46 46 45 42 39 41 39 37 38 36 36
51 52 51 49 48 48 48 48 48 46 46 46 46 43 40 41 41 39 38 36 36 36
50 50 47 47 48 48 48 47 47 46 46 46 43 43 42 41 40 38 37 37 35 35
48 49 48 48 48 48 47 45 45 45 46 45 44 44 41 41 38 37 37 36 35 35
48 48 46 45 45 44 45 45 46 44 43 43 44 44 41 40 37 35 35 34 34 34
48 47 45 44 44 45 45 45 44 42 42 42 44 41 41 39 35 35 33 33 33 33
45 44 45 46 45 44 43 42 41 41 41 39 39 40 40 39 35 34 33 33 32 33
45 44 44 43 42 41 41 40 40 38 37 36 37 38 39 38 35 33 32 32 32 32
44 43 43 42 41 41 40 38 36 36 35 34 34 37 38 36 32 31 31 32 32 33
43 42 41 39 38 37 36 35 35 34 34 35 33 36 37 36 30 29 30 30 31 35
42 40 39 37 35 34 33 32 31 32 31 32 32 33 37 37 31 30 30 30 30 31

GFSNIL_sfc_temp_051.txt.gz
Temp
63 62 62 59 58 57 57 57 56 56 51 50 50 52 50 50 49 49 50 51 51 53
63 62 61 59 58 56 53 54 52 52 52 50 50 50 47 46 50 48 48 51 51 51
63 62 62 58 55 53 54 51 51 53 51 50 49 48 47 48 48 48 50 51 50 50
60 59 58 55 54 52 51 50 51 50 50 47 45 46 47 46 47 49 50 49 49 49
57 55 54 53 52 51 50 51 50 48 47 47 47 47 45 47 51 50 48 49 48 48
54 55 53 51 51 53 51 49 48 47 46 49 49 48 50 51 51 50 49 49 48 48
53 53 52 51 51 50 51 51 51 51 46 47 47 50 50 51 49 49 49 49 48 48
52 51 51 51 47 47 47 51 47 48 45 46 47 46 48 50 49 49 48 48 47 47
48 49 46 46 48 50 45 50 46 44 45 44 44 42 41 42 48 48 47 47 48 47
47 46 46 47 46 48 45 45 43 42 42 43 46 41 40 39 46 47 47 47 47 46
46 44 47 46 43 42 43 43 43 45 46 46 46 39 38 37 46 46 46 46 46 45
46 45 43 42 42 43 45 46 46 46 45 44 45 39 37 38 45 44 45 46 45 44
46 45 42 43 45 46 46 44 44 44 44 41 43 40 37 39 42 40 42 44 44 37
43 44 44 44 44 43 43 42 41 40 42 42 42 42 38 37 40 40 39 41 41 42

GFSNIL_sfc_temp_054.txt.gz
Temp
70 70 70 70 68 67 62 56 61 60 63 56 55 54 59 55 52 53 48 55 54 58
68 68 68 68 66 65 60 56 53 54 52 56 59 57 49 48 46 48 53 53 56 57
68 68 68 65 63 60 54 52 51 48 51 57 52 49 51 50 47 48 47 55 57 57
71 70 66 62 61 57 54 52 51 52 52 49 48 47 46 46 48 46 52 57 56 55
66 63 60 57 56 53 51 51 55 53 49 49 48 46 48 45 47 51 55 55 55 54
57 55 54 52 51 51 51 52 52 49 50 49 46 48 45 46 51 55 55 55 55 55
54 53 53 52 52 52 51 51 49 49 49 48 47 46 47 50 52 53 55 54 54 54
54 55 55 55 57 54 52 51 53 49 48 45 45 49 48 48 48 51 52 53 55 55
54 54 53 55 54 50 51 52 50 46 44 45 47 42 41 43 52 52 53 53 54 55
54 52 53 53 52 50 50 48 46 45 45 45 45 42 41 40 50 52 52 53 53 53
53 54 53 51 48 47 45 46 46 46 51 52 53 41 40 38 49 51 52 52 52 52
53 52 50 51 50 49 51 53 53 53 51 51 52 41 39 40 48 48 49 51 52 51
53 50 49 51 52 52 54 52 52 51 51 47 49 43 39 41 44 43 45 47 48 43
50 50 51 51 51 51 51 49 47 46 47 47 46 46 39 38 41 40 40 40 42 45

GFSNIL_sfc_temp_057.txt.gz
Temp
76 75 74 74 74 72 70 66 66 58 57 55 52 51 52 53 59 54 51 49 52 51
71 74 72 72 70 69 68 65 63 57 55 50 50 52 53 51 48 48 50 50 47 50
72 70 70 68 66 65 64 63 58 54 52 50 51 52 52 49 49 45 46 47 47 49
68 69 69 64 64 63 61 57 55 52 50 49 50 49 46 46 45 45 45 47 49 54
68 64 63 61 59 57 55 53 52 52 51 50 47 46 47 46 46 44 46 49 52 53
60 57 56 53 52 52 51 51 52 50 48 48 49 48 48 47 45 46 49 52 53 53
55 54 53 52 52 51 52 51 50 50 49 47 45 47 46 46 46 48 50 50 52 53
54 55 55 55 53 52 51 50 51 50 49 48 47 46 45 46 47 47 48 48 53 56
57 59 58 57 56 55 53 53 51 48 46 44 47 42 41 43 46 50 52 53 54 56
60 57 57 58 57 56 53 53 51 47 49 48 49 42 42 40 50 51 51 52 53 53
58 57 57 56 55 53 53 52 51 51 51 51 54 42 41 39 49 50 51 52 52 52
56 54 55 53 53 53 51 52 54 55 54 53 54 41 39 41 47 47 47 49 50 50
57 56 54 53 54 55 55 54 55 53 53 45 51 38 38 40 43 40 42 44 45 41
55 55 55 54 54 54 53 52 49 47 48 49 46 45 38 37 39 38 36 37 39 41

GFSNIL_sfc_temp_060.txt.gz
Temp
70 70 67 64 66 64 64 62 62 62 58 57 55 52 51 50 50 49 46 47 48 47
67 68 69 67 68 64 63 61 60 58 55 52 51 51 51 50 46 46 45 46 46 46
68 68 68 66 65 62 61 59 59 56 52 50 50 50 48 46 46 45 45 45 45 45
68 68 63 63 62 61 58 57 56 53 50 50 48 48 46 45 45 44 44 45 44 45
64 63 61 59 58 57 55 54 52 50 49 49 47 46 45 44 45 44 44 45 45 47
58 56 54 52 51 51 50 50 50 49 47 47 46 46 45 46 45 44 45 46 47 48
54 52 51 51 50 50 50 49 48 48 47 47 46 46 46 45 44 45 46 47 47 48
52 52 52 50 50 50 49 49 48 47 46 46 46 46 45 46 44 45 45 47 48 48
54 54 53 51 50 49 49 49 49 46 45 44 46 41 41 43 44 46 46 44 45 46
57 55 54 54 53 51 49 48 46 44 44 45 46 41 41 40 43 43 42 42 43 46
55 55 54 53 51 50 50 48 47 46 46 46 49 41 39 39 41 41 42 42 43 42
55 52 53 51 50 49 49 48 48 49 48 45 39 38 38 40 38 39 37 41 40 39
55 54 51 50 50 50 50 50 50 49 46 43 37 37 36 37 32 31 30 33 36 36
55 53 52 50 49 49 47 46 41 39 40 42 39 34 35 35 30 28 29 30 30 31

GFSNIL_sfc_temp_063.txt.gz
Temp
69 66 64 63 61 62 61 60 59 59 58 57 54 52 52 51 50 50 48 46 46 46
66 65 64 63 61 60 60 59 58 59 57 54 53 52 51 50 48 46 45 46 46 46
66 66 65 60 59 60 59 59 57 55 53 51 51 51 49 46 45 45 45 45 45 45
65 63 60 61 61 59 57 57 55 53 51 50 49 48 46 45 45 45 45 45 45 45
61 60 59 59 58 57 55 54 52 51 50 49 47 46 46 45 45 44 44 44 44 45
57 55 54 52 53 52 52 50 50 49 48 46 46 46 45 45 44 45 45 45 45 46
53 51 50 51 50 50 49 48 48 47 47 46 46 46 46 45 44 44 45 45 46 46
50 51 50 49 48 48 48 47 47 46 46 45 45 46 44 45 44 44 44 45 46 44
50 49 49 48 48 48 47 47 46 45 44 44 45 41 42 43 44 45 44 40 41 41
52 50 49 49 49 48 46 45 42 41 41 41 43 41 41 40 41 40 38 37 37 40
52 51 50 50 46 44 43 41 41 41 41 42 44 39 39 37 37 35 36 36 35 34
51 48 47 46 47 47 46 43 42 43 41 37 36 38 38 36 33 33 31 34 33 33
50 49 49 48 48 46 44 44 44 41 37 36 34 37 37 33 28 27 27 29 31 33
50 50 50 45 43 42 41 39 35 35 35 33 33 33 35 33 27 26 27 27 27 27

GFSNIL_sfc_temp_069.txt.gz
Temp
58 58 58 57 58 57 58 59 60 59 60 59 57 56 55 54 53 52 52 49 49 50
58 58 59 58 59 59 57 58 57 57 58 57 57 57 55 54 52 51 50 50 50 46
59 59 59 59 56 57 57 59 59 57 57 56 57 54 53 52 50 49 47 47 46 46
59 59 59 60 59 57 58 58 59 58 57 56 54 53 52 49 48 47 46 46 46 46
60 60 60 60 58 59 59 59 58 58 56 53 52 51 50 47 47 46 45 45 46 45
61 61 61 60 60 60 59 58 56 56 53 51 51 49 47 48 46 46 46 45 45 45
60 60 61 60 59 59 56 54 52 53 52 50 48 48 47 47 46 45 45 45 45 45
60 61 60 58 56 53 52 51 51 49 48 46 46 46 46 46 44 44 44 44 45 43
55 55 55 53 51 51 50 48 47 47 46 45 45 40 41 44 44 44 44 41 39 39
53 52 50 50 49 48 47 46 46 45 44 43 43 40 41 41 44 41 39 38 37 37
51 50 49 48 47 45 45 44 44 43 44 43 43 39 39 37 38 35 34 34 32 30
50 48 47 46 45 45 45 44 43 44 43 41 39 37 36 36 35 32 30 31 30 30
49 48 46 46 44 44 44 43 41 38 38 37 36 36 36 34 29 27 28 29 30 32
49 48 47 45 44 43 42 38 34 32 34 34 34 35 35 34 29 28 27 27 26 27

GFSNIL_sfc_temp_075.txt.gz
Temp
63 64 64 64 64 63 64 64 65 64 65 65 65 65 65 64 64 63 62 62 60 58
62 62 63 63 63 64 64 64 64 64 65 66 66 66 65 64 63 62 61 60 60 55
61 62 62 63 62 62 64 64 64 65 65 66 66 66 64 63 63 59 56 56 55 54
61 61 61 61 61 62 64 64 62 62 62 63 63 62 60 60 60 58 57 55 55 52
61 61 60 60 61 63 63 64 64 65 64 63 58 57 57 57 57 55 53 51 51 50
60 61 61 62 63 64 63 63 64 64 62 62 63 60 59 56 53 53 53 52 51 49
60 60 61 62 63 62 63 62 63 62 62 62 62 58 56 54 53 52 52 50 50 48
60 61 62 62 62 62 63 63 64 62 57 57 56 54 53 54 52 50 47 47 47 46
62 62 61 61 61 61 62 63 63 62 59 54 54 45 45 49 49 47 45 41 40 40
63 62 61 62 62 61 61 61 59 59 56 53 52 42 43 43 47 45 42 39 38 37
62 62 63 62 61 61 59 57 53 51 50 49 46 40 41 40 43 39 38 37 37 35
62 61 57 57 55 52 50 49 48 47 45 43 41 38 38 38 37 35 34 34 35 35
60 52 51 49 48 47 47 45 44 42 42 39 38 37 37 37 34 32 31 33 33 33
53 52 50 48 46 44 42 39 37 35 36 37 36 35 36 36 34 32 30 30 30 32

GFSNIL_sfc_temp_078.txt.gz
Temp
65 65 66 68 70 67 64 65 63 63 65 67 70 71 71 70 70 71 69 68 69 68
69 67 69 69 70 69 69 71 67 69 69 71 72 72 71 69 70 70 69 69 69 67
70 69 70 70 69 70 70 71 71 71 71 71 71 71 71 71 71 70 69 66 63 63
70 70 70 69 69 70 70 71 71 71 71 71 71 72 71 71 71 69 66 63 62 59
69 69 69 69 69 70 70 71 71 71 71 71 71 71 71 69 65 61 60 60 56 57
67 68 68 68 69 70 70 71 71 72 71 71 71 72 71 65 61 61 65 60 55 54
67 68 68 69 69 69 70 69 70 71 70 70 71 70 67 66 64 64 62 59 54 54
68 69 69 68 69 69 69 69 70 68 69 69 69 68 63 63 62 60 59 55 53 53
70 69 68 69 68 69 68 69 69 69 69 68 67 51 46 56 61 57 54 49 47 46
70 69 68 69 69 67 67 67 67 67 67 67 68 45 44 44 60 55 51 46 41 40
69 69 69 69 68 67 67 66 66 66 67 67 64 43 43 42 50 46 44 41 41 37
70 69 69 68 67 67 66 64 64 62 60 56 49 40 39 42 40 37 36 37 37 36
71 69 68 67 66 59 60 56 48 44 45 42 41 39 39 40 36 33 32 33 33 33
69 66 63 60 54 50 45 42 38 36 37 38 38 37 38 37 35 33 31 31 30 31

GFSNIL_sfc_temp_081.txt.gz
Temp
67 66 67 63 62 62 61 61 62 62 63 64 64 67 70 67 68 68 66 66 66 67
68 67 67 67 67 65 65 66 66 64 65 65 67 66 70 67 67 69 65 65 68 68
68 68 69 68 68 68 70 71 70 69 67 66 66 70 70 70 70 69 68 68 68 68
70 69 69 70 70 70 70 70 70 70 68 69 70 70 70 70 70 69 69 68 68 67
73 72 70 70 71 71 70 70 70 71 70 71 71 71 70 69 70 70 69 69 68 65
72 72 72 71 72 71 71 71 72 72 71 71 71 72 72 71 70 70 70 70 68 62
72 72 72 73 72 71 71 71 71 71 71 71 72 73 72 72 70 70 70 68 66 63
73 73 72 72 72 72 72 72 72 72 72 72 71 72 71 72 70 70 67 65 63 60
74 72 71 72 71 71 71 72 72 71 71 70 71 57 51 59 70 67 66 60 58 55
74 72 71 72 72 71 70 70 69 70 70 70 70 51 48 47 63 61 63 58 57 49
75 74 74 72 71 70 70 69 69 69 69 70 70 49 46 43 57 58 59 56 51 46
76 74 74 72 70 71 70 68 67 68 67 68 68 41 42 45 50 43 39 39 39 39
77 74 72 72 71 71 69 67 64 61 53 44 54 41 40 43 40 35 34 34 34 35
76 72 73 72 72 69 60 49 43 40 38 38 39 39 39 39 37 34 32 31 31 32

GFSNIL_sfc_temp_084.txt.gz
Temp
62 62 61 61 61 60 61 61 62 62 62 62 62 62 62 60 62 60 59 59 60 60
63 62 61 61 62 61 62 63 62 61 62 63 63 62 63 61 61 62 61 61 60 61
64 64 63 63 61 61 62 63 62 60 61 61 62 62 62 63 63 62 61 61 60 61
64 65 64 64 63 62 62 62 63 62 62 62 62 63 62 63 63 63 61 61 61 61
64 65 64 64 65 64 63 64 64 65 64 63 63 63 62 62 64 63 61 62 61 60
64 64 64 65 65 65 65 65 66 66 66 65 64 64 64 63 64 63 63 63 62 62
66 66 66 66 66 66 66 65 66 66 65 66 65 65 65 66 64 64 64 63 63 63
68 68 68 67 66 67 67 67 67 65 65 66 66 66 65 66 64 63 63 64 63 63
70 69 67 67 67 66 66 66 66 65 65 64 67 56 51 59 64 64 63 62 62 62
71 69 68 67 67 66 65 65 64 64 65 64 65 51 49 48 64 63 62 61 60 54
71 70 69 68 66 65 65 64 64 64 64 64 66 50 47 46 58 61 60 55 53 53
71 70 69 67 66 66 65 64 64 64 63 63 63 48 46 46 55 57 45 41 41 42
73 71 69 68 67 66 66 65 64 62 53 43 56 40 40 44 45 37 34 34 34 35
73 71 70 68 67 65 64 54 44 38 38 40 41 40 39 39 38 35 33 32 31 32

GFSNIL_sfc_temp_087.txt.gz
Temp
61 59 59 59 59 59 59 60 57 58 60 60 59 59 60 60 58 58 57 57 57 58
60 59 59 58 59 60 60 61 58 59 60 59 60 60 59 58 59 59 58 59 58 58
61 60 59 59 59 59 59 61 61 58 61 60 61 61 60 60 59 59 59 59 59 59
62 61 59 59 60 59 59 60 61 59 59 61 61 61 61 61 61 60 60 60 59 59
63 62 61 61 60 61 59 60 60 59 60 60 61 61 60 60 62 60 59 60 59 59
62 63 61 62 63 62 61 60 60 60 59 59 60 60 60 60 59 60 60 60 57 59
61 62 62 63 63 63 63 61 60 61 60 60 60 61 61 61 59 59 60 60 59 60
61 62 62 62 62 63 63 62 62 61 61 62 62 62 61 61 60 59 59 60 61 60
63 62 62 62 62 62 62 62 63 62 61 61 63 55 50 57 61 61 61 59 60 60
64 63 63 63 63 62 61 62 61 62 63 62 62 50 48 47 61 61 61 60 60 59
66 64 64 64 63 63 62 61 61 61 61 61 62 48 47 45 57 60 60 59 58 57
65 65 64 63 63 63 62 61 61 62 62 61 61 47 46 46 56 57 58 47 43 50
52 60 64 63 63 63 63 62 63 61 60 55 60 44 45 46 56 53 37 35 35 36
47 48 50 55 61 60 60 59 54 44 38 38 37 39 39 41 44 44 35 32 32 33

GFSNIL_sfc_temp_090.txt.gz
Temp
59 55 55 57 57 57 58 58 59 57 57 57 60 60 59 58 57 56 57 57 57 57
59 57 56 57 58 58 59 60 58 56 57 56 57 58 59 57 55 55 55 55 56 58
60 60 59 58 55 56 58 60 59 56 58 59 58 58 57 59 57 56 57 58 56 57
59 60 59 56 56 56 57 57 57 59 58 59 59 59 58 58 58 57 58 58 57 58
60 60 58 57 57 57 57 57 58 58 58 59 59 60 59 58 60 57 57 57 56 58
60 60 59 58 57 58 57 57 58 59 57 58 58 59 59 60 59 59 60 60 59 59
59 60 60 60 59 58 58 57 57 58 58 58 59 59 59 59 58 58 59 59 60 60
60 61 61 60 61 60 59 58 58 58 58 58 58 59 58 59 58 58 57 58 58 57
60 60 60 60 60 60 60 60 59 58 57 57 58 52 48 54 58 58 57 57 57 58
60 59 59 60 60 59 59 60 59 58 58 57 58 48 47 46 58 58 58 58 58 57
60 60 60 60 59 59 59 59 59 59 60 59 60 48 47 44 55 58 58 58 58 57
52 54 56 59 60 60 60 59 59 60 59 60 61 47 46 45 54 56 57 59 58 58
47 49 48 49 54 61 61 60 60 59 60 56 59 48 45 46 57 55 54 56 42 37
43 44 44 45 45 46 50 58 57 54 40 38 36 38 38 42 52 53 51 44 33 33

GFSNIL_sfc_temp_093.txt.gz
Temp
59 55 54 54 57 56 56 57 56 57 59 59 59 58 58 57 57 56 56 56 56 58
58 57 54 54 57 55 56 58 57 57 57 58 58 58 58 56 56 56 56 56 55 55
56 56 55 54 55 53 54 56 55 55 56 57 58 58 57 58 58 57 56 57 56 56
56 56 55 54 54 54 54 55 56 56 56 56 56 56 56 58 59 57 58 56 54 57
57 57 56 55 54 54 54 55 56 56 56 57 57 56 56 56 57 56 56 55 54 56
56 56 57 56 54 54 54 54 56 56 56 56 57 56 56 57 57 56 56 56 55 56
56 56 56 57 56 55 55 55 55 56 56 56 57 57 57 57 56 56 56 57 57 57
57 57 57 56 56 56 56 56 56 55 56 56 56 57 57 58 57 56 56 56 57 57
57 57 57 57 57 56 56 56 56 55 55 55 57 50 47 53 57 57 56 55 56 56
58 57 58 59 58 58 58 57 56 56 56 55 56 47 46 45 56 56 56 56 56 56
52 54 58 58 58 58 58 58 58 58 58 57 57 46 45 44 53 56 56 56 55 55
47 49 50 50 53 58 58 58 58 59 58 58 58 47 44 44 52 54 54 56 56 55
43 44 43 44 46 48 50 56 59 58 58 49 49 36 37 43 54 52 52 53 53 46
39 41 39 40 41 42 44 45 41 38 35 35 33 35 36 37 39 48 49 48 43 34

GFSNIL_sfc_temp_096.txt.gz
Temp
53 53 56 52 56 56 56 56 57 58 58 57 57 57 57 57 57 55 55 56 57 56
54 53 53 52 53 57 57 57 56 58 57 57 57 57 57 57 57 57 56 56 57 58
54 54 52 53 52 53 57 57 56 56 56 56 57 58 57 56 57 56 57 57 56 56
53 53 53 52 52 52 53 53 55 56 56 57 57 57 57 57 56 55 56 56 57 57
54 53 52 51 51 52 52 53 53 54 55 56 56 56 57 57 58 57 56 55 55 57
57 53 52 52 51 51 52 52 53 53 54 55 56 56 55 55 55 55 57 58 56 57
56 56 53 53 52 52 52 52 52 52 53 54 55 56 55 55 54 55 55 56 56 57
57 57 55 53 53 53 52 53 53 53 53 54 54 55 55 55 55 54 54 55 55 56
57 57 57 56 54 53 53 53 52 52 53 52 55 48 46 52 55 55 54 53 54 55
55 57 57 57 56 55 54 53 53 53 53 53 54 46 46 44 55 55 55 55 55 55
48 50 51 53 55 57 57 56 55 55 55 55 56 46 44 43 52 55 55 55 55 55
44 44 44 45 45 48 48 54 57 57 57 56 53 37 39 42 51 52 53 55 55 55
41 40 39 40 41 43 45 45 47 41 36 36 37 36 37 39 46 49 50 51 51 38
36 37 36 38 39 39 40 39 36 34 33 33 33 34 36 36 40 39 35 33 32 33

GFSNIL_sfc_temp_099.txt.gz
Temp
63 63 63 63 64 61 59 59 60 63 60 60 60 60 58 57 57 58 58 58 57 57
63 62 63 62 62 61 60 60 59 59 59 59 59 58 58 57 57 58 57 56 57 58
62 63 63 62 61 60 59 59 59 59 58 57 57 57 57 57 57 56 57 57 57 58
62 61 61 61 61 62 60 59 58 58 59 58 58 58 58 57 59 59 59 60 61 60
61 61 60 60 60 61 61 59 60 59 58 58 58 60 60 57 59 59 59 58 57 56
59 59 60 60 60 60 61 62 62 61 57 56 57 58 58 58 58 57 57 57 56 57
60 60 60 60 60 59 60 61 61 62 62 61 60 58 57 57 57 58 60 61 61 58
60 59 59 60 60 60 59 60 62 61 61 62 62 62 61 59 57 57 58 62 63 64
58 58 57 58 60 59 59 60 60 59 60 60 61 49 46 55 61 60 61 61 62 63
52 52 54 57 57 57 59 59 59 59 60 60 61 45 45 44 62 62 61 61 61 62
47 47 48 48 48 48 52 56 56 56 57 57 48 38 41 42 53 56 56 57 58 59
43 43 43 43 43 44 47 46 41 41 43 45 38 36 37 40 49 51 53 54 54 46
41 40 40 41 41 43 43 40 39 37 36 34 36 36 37 38 45 47 46 36 36 34
39 38 38 39 40 41 39 37 35 33 32 32 33 34 35 36 40 38 34 32 31 32

GFSNIL_sfc_temp_102.txt.gz
Temp
71 73 73 71 73 72 70 69 68 66 66 64 62 60 59 57 58 59 59 61 60 60
72 72 72 71 71 69 67 66 63 64 60 61 62 63 61 61 59 58 58 59 60 60
71 72 72 70 68 68 67 65 63 60 63 60 60 60 60 58 57 57 57 57 58 58
70 71 70 70 69 68 67 64 63 63 64 59 58 57 57 57 57 56 56 56 55 55
69 70 69 69 68 67 66 65 63 62 65 62 62 61 60 58 59 57 57 57 57 59
65 68 69 69 69 68 66 66 65 65 63 62 63 63 62 61 62 61 61 61 61 64
63 67 68 68 67 67 67 65 65 65 65 64 64 64 64 63 61 64 65 64 64 60
63 64 65 64 65 66 66 66 66 65 66 65 64 64 63 62 62 62 61 62 62 63
61 60 60 63 62 62 64 65 65 65 65 65 66 51 48 57 63 63 63 63 62 62
50 52 52 57 58 61 62 64 63 64 65 64 59 38 42 45 65 65 64 64 64 63
46 46 47 48 48 49 51 49 52 50 56 46 40 37 37 38 50 55 58 61 56 53
42 42 42 42 43 45 44 41 39 39 41 39 38 36 37 40 49 50 52 40 37 39
41 41 41 42 41 41 40 38 37 35 35 34 35 35 36 41 46 45 36 34 33 33
42 41 41 42 42 40 38 36 34 33 33 33 33 33 35 36 38 34 31 30 30 31

GFSNIL_sfc_temp_105.txt.gz
Temp
78 78 78 76 76 76 72 70 71 69 68 66 64 61 61 60 60 60 60 62 61 63
76 76 77 76 76 76 75 71 69 71 70 64 64 62 60 59 58 58 58 59 62 58
74 76 76 75 74 74 71 69 68 67 67 67 64 62 61 59 59 59 58 58 59 59
71 75 75 73 73 69 67 68 67 67 62 60 59 60 60 61 60 58 58 58 57 57
70 72 72 72 71 69 65 68 68 68 63 63 62 60 58 56 57 56 55 56 56 56
67 69 71 72 69 66 67 66 68 68 65 64 64 62 60 59 59 59 60 59 57 57
63 66 70 73 67 65 65 66 65 66 65 63 64 64 64 64 63 63 64 63 62 61
62 65 69 69 66 65 65 64 65 64 64 64 63 65 64 64 62 63 64 63 64 64
61 63 63 63 63 63 63 65 64 64 64 65 66 40 45 55 65 65 64 64 65 67
50 51 51 58 61 61 61 63 63 63 63 53 45 38 39 40 62 62 63 63 61 62
45 45 46 47 48 48 47 45 46 45 46 43 40 36 37 37 56 57 53 44 44 46
41 42 42 41 41 42 40 38 38 38 38 38 36 36 36 40 49 48 39 37 36 39
40 40 40 40 38 37 36 35 35 34 34 34 33 35 36 43 46 36 33 33 33 33
40 40 40 40 38 36 34 33 32 32 32 32 33 33 34 35 35 33 31 30 30 31

GFSNIL_sfc_temp_108.txt.gz
Temp
75 73 73 72 69 67 66 65 66 66 64 63 63 61 61 60 60 60 60 59 59 60
73 72 73 70 70 69 67 67 65 66 65 63 63 62 61 59 59 60 59 59 59 59
72 73 72 70 68 68 67 66 64 64 65 64 62 61 60 59 59 58 58 59 58 58
70 70 69 69 68 67 64 64 63 63 63 61 61 60 59 58 58 57 57 57 58 57
66 67 66 66 67 64 63 64 64 63 61 61 60 60 59 58 58 57 57 57 57 57
64 64 65 66 66 64 63 63 64 63 62 61 60 59 58 58 57 58 57 57 56 57
61 63 63 65 64 62 63 62 63 63 63 62 61 61 60 59 57 57 57 58 58 57
60 62 63 63 62 61 61 62 62 61 61 61 61 58 60 60 59 59 58 59 60 59
54 58 59 61 61 60 60 61 61 61 60 59 50 39 40 50 59 59 59 58 58 60
45 47 50 55 57 56 55 59 57 57 49 45 42 37 39 39 58 56 53 50 52 56
42 42 43 45 44 43 43 43 43 44 44 41 38 37 37 38 54 45 42 40 43 44
39 39 38 37 38 38 37 36 35 36 36 36 35 36 37 43 45 39 36 35 36 37
37 37 36 34 34 36 36 35 35 33 34 34 33 35 37 41 38 33 32 32 33 33
35 36 36 35 34 36 34 33 32 32 32 32 32 33 35 36 34 32 31 30 30 32

GFSNIL_sfc_temp_111.txt.gz
Temp
70 68 66 66 64 63 63 61 62 62 61 61 61 60 59 59 59 59 59 58 58 58
67 66 68 68 65 64 63 62 61 61 61 62 61 60 60 59 59 59 58 58 59 59
66 68 67 68 65 63 63 63 60 61 61 60 61 60 60 59 60 59 58 59 58 58
66 66 63 66 67 65 63 61 61 60 61 60 61 60 59 59 59 58 58 59 59 59
62 63 63 64 63 63 60 60 59 59 59 60 61 60 59 57 58 57 56 57 57 57
59 61 62 62 62 62 61 59 59 59 60 59 60 59 59 58 57 57 57 57 57 57
59 60 62 62 61 60 61 59 60 61 60 59 59 59 59 58 58 58 58 58 58 58
49 59 59 61 60 60 60 60 60 60 59 60 59 57 58 58 57 56 56 56 57 57
44 47 53 59 59 59 59 59 59 58 58 50 48 39 40 53 57 57 57 55 57 58
41 42 43 45 52 53 56 55 53 50 48 44 42 37 40 40 58 56 52 51 54 55
40 40 40 40 38 39 40 41 41 40 40 39 38 37 38 41 47 42 40 40 42 43
38 38 38 36 35 36 35 35 35 36 36 35 35 36 38 42 40 36 34 35 36 37
35 34 34 35 34 34 34 32 33 32 33 34 34 36 37 38 36 32 32 32 33 34
32 32 33 34 34 33 33 33 32 31 31 32 32 33 35 35 34 32 31 31 30 32

GFSNIL_sfc_temp_114.txt.gz
Temp
68 64 65 63 64 63 63 63 62 62 61 59 58 59 58 58 59 59 59 58 58 58
66 65 64 64 63 63 63 63 61 62 60 58 58 59 58 58 58 58 59 58 58 58
65 66 65 64 62 62 62 62 61 61 61 60 60 59 59 58 59 58 58 58 58 58
65 65 64 64 63 62 61 61 61 61 61 60 60 59 59 59 59 58 58 58 58 58
60 60 62 63 63 62 62 62 61 60 61 61 60 59 58 58 58 58 57 58 58 58
52 59 60 60 61 61 61 61 60 59 59 61 60 60 59 59 58 58 58 58 58 58
47 50 59 58 59 60 60 60 60 59 58 60 60 60 59 58 58 58 58 58 58 58
44 46 48 58 58 60 60 60 60 59 58 58 58 57 58 58 57 57 57 57 58 58
43 43 42 45 54 59 59 59 59 58 57 53 49 39 40 52 57 57 56 55 56 57
40 40 40 41 41 42 45 51 49 49 48 44 42 38 40 39 56 56 55 54 55 54
38 38 39 39 37 36 37 37 38 38 39 39 39 37 38 40 47 43 41 40 42 45
35 35 36 34 35 35 34 34 33 34 34 35 35 37 38 41 39 36 34 35 36 37
33 32 33 33 34 34 34 33 33 32 33 33 33 36 36 37 36 33 32 32 33 34
30 31 31 33 33 33 32 33 32 32 32 32 32 33 35 35 33 32 31 31 31 32

GFSNIL_sfc_temp_117.txt.gz
Temp
59 65 65 67 65 63 62 63 63 63 62 61 59 59 60 59 58 58 58 58 58 58
57 63 63 63 63 64 63 63 61 63 61 60 59 60 59 58 57 58 58 59 59 57
57 61 64 63 62 62 62 62 61 62 61 59 59 59 59 57 58 57 58 59 57 57
52 61 64 62 62 62 61 61 60 62 61 60 59 58 58 57 58 57 57 58 57 57
49 52 62 61 61 60 60 61 61 61 61 60 60 59 58 57 58 57 57 57 57 57
45 47 50 59 61 60 60 60 60 61 60 60 60 59 59 59 58 58 58 58 57 58
43 44 45 50 59 60 60 60 59 60 60 60 60 60 59 59 58 58 59 59 59 59
41 43 43 44 46 56 59 59 59 59 59 59 60 59 59 59 58 57 57 58 58 58
40 41 41 41 41 41 43 53 58 58 58 57 49 39 45 54 58 57 57 56 56 57
38 38 38 39 39 38 37 38 40 43 46 42 40 38 39 43 57 57 56 56 55 55
34 35 37 37 36 37 37 35 34 35 37 38 38 38 39 38 50 45 42 42 44 50
32 32 33 33 34 35 35 34 33 34 34 35 35 36 37 40 39 36 34 35 36 38
30 31 30 31 31 33 33 32 33 32 33 33 32 36 36 36 35 33 32 32 33 34
29 30 30 30 31 31 31 32 32 32 32 32 32 33 35 36 34 32 31 31 31 32

GFSNIL_sfc_temp_120.txt.gz
Temp
55 57 61 65 62 63 62 63 64 64 64 64 63 62 61 61 61 61 60 59 59 59
52 55 58 62 63 63 63 63 64 64 64 63 62 61 60 60 59 59 59 59 58 58
50 52 53 59 64 62 62 61 62 63 63 63 61 60 60 60 59 58 58 58 58 58
47 49 51 59 64 62 61 61 61 62 62 61 60 60 59 59 58 57 57 57 58 58
45 46 47 49 54 61 60 60 60 61 62 61 60 59 59 57 57 57 56 57 57 57
42 43 44 46 49 56 60 60 60 61 61 61 59 59 59 59 58 57 57 57 57 57
40 41 42 44 44 46 49 59 59 60 61 61 60 59 59 58 57 57 57 58 58 58
39 41 41 42 43 43 43 45 47 59 60 60 59 59 59 59 58 57 57 58 58 59
38 39 39 39 40 41 41 41 41 42 46 52 45 41 45 54 58 58 57 57 57 58
36 36 37 37 38 38 37 39 38 38 38 38 38 37 43 43 58 57 57 57 56 56
33 33 35 35 35 35 36 35 35 36 36 36 37 36 38 41 50 47 41 40 43 53
31 31 32 31 32 33 33 33 33 33 33 34 34 36 36 38 37 35 34 35 35 36
29 29 29 30 30 32 32 32 33 32 32 33 32 34 35 36 34 32 32 33 33 34
28 28 29 30 31 31 31 32 31 31 31 31 31 32 33 34 34 32 32 32 32 32

GFSNIL_sfc_temp_123.txt.gz
Temp
54 55 57 60 63 66 65 66 67 65 66 67 65 65 65 65 65 65 65 66 65 65
52 52 53 55 58 63 67 68 68 67 66 67 67 65 64 63 63 63 63 62 63 62
48 50 51 53 56 60 64 66 67 67 68 69 68 64 63 62 63 61 62 61 61 61
45 47 48 49 50 52 63 64 65 67 67 67 65 63 61 61 62 61 61 60 60 60
44 44 45 46 47 48 50 63 63 64 65 67 65 63 60 60 61 60 59 59 59 60
41 42 42 43 45 46 47 49 60 62 62 62 62 62 61 60 60 60 60 60 59 61
40 40 40 42 42 43 45 45 46 48 59 61 62 61 61 60 60 59 60 61 60 62
38 40 41 40 40 41 41 43 44 44 44 43 46 42 42 56 59 58 58 58 60 64
38 38 39 39 40 39 39 39 39 39 41 40 41 37 38 41 57 58 57 57 60 64
36 36 36 37 37 38 38 37 36 35 37 36 36 37 38 38 50 57 57 58 59 59
33 34 35 36 35 35 36 35 34 35 35 35 35 35 36 37 39 38 37 37 39 45
31 31 32 32 32 34 35 34 33 33 33 32 33 34 34 37 38 35 33 35 35 36
31 30 30 31 31 33 33 33 35 33 33 33 32 34 34 33 34 33 33 33 33 33
30 30 31 31 32 31 32 32 32 32 32 32 32 32 33 33 30 29 29 29 29 31

GFSNIL_sfc_temp_126.txt.gz
Temp
56 57 58 58 61 61 64 68 69 68 68 68 68 70 72 72 71 71 72 72 73 74
52 55 57 59 62 60 63 64 68 68 67 66 66 68 69 68 67 67 70 72 73 72
51 52 52 54 54 52 56 58 64 67 66 66 66 66 66 66 67 67 66 66 68 66
47 49 48 48 48 48 50 54 60 66 67 66 65 66 66 66 67 66 65 64 64 64
43 44 44 44 45 46 47 49 51 54 66 65 66 68 66 66 66 64 61 62 61 62
41 41 41 42 43 43 44 45 47 48 47 51 61 63 64 65 64 63 62 62 61 62
40 41 41 42 42 41 42 41 42 44 43 44 43 43 43 47 58 61 61 62 62 62
43 42 41 41 42 42 41 41 40 40 40 40 41 39 39 42 48 57 61 61 61 62
43 45 42 41 41 41 42 41 41 38 38 37 38 36 37 39 49 52 58 59 59 60
41 42 43 44 42 41 38 40 38 38 38 36 35 35 36 37 42 40 39 39 40 51
37 38 40 40 40 40 40 39 37 37 36 37 36 35 35 37 39 37 37 36 35 36
34 35 35 35 35 37 38 36 36 36 35 34 34 34 34 36 36 34 34 34 34 33
33 33 32 33 33 35 36 34 37 34 33 33 32 34 34 35 33 30 31 31 32 32
33 32 32 33 33 32 33 33 32 32 32 32 32 32 33 33 32 32 31 28 28 30